This is the latest recevied weather packets stored in our database for station/object IZ0DPP-10. If no packets are shown the sender has not sent any weather packets the latest 10 day(s).
| Time | Temp. | Humidity | Pressure | Rain* | Wind** | Luminosity | Snow |
|---|---|---|---|---|---|---|---|
| 1777500944 | 18.89° C | 100% | 1017.7 hPa | - | - | - | - |
| 1777500044 | 18.89° C | 100% | 1017.7 hPa | - | - | - | - |
| 1777499144 | 20° C | 100% | 1017.5 hPa | - | - | - | - |
| 1777498249 | 19.44° C | 100% | 1017.7 hPa | - | - | - | - |
| 1777497349 | 18.89° C | 100% | 1017.7 hPa | - | - | - | - |
| 1777496449 | 18.89° C | 100% | 1017.7 hPa | - | - | - | - |
| 1777495549 | 18.33° C | 100% | 1017.8 hPa | - | - | - | - |
| 1777494649 | 17.78° C | 100% | 1017.8 hPa | - | - | - | - |
| 1777493748 | 18.33° C | 100% | 1017.8 hPa | - | - | - | - |
| 1777492845 | 18.89° C | 100% | 1017.8 hPa | - | - | - | - |
| 1777491945 | 18.33° C | 100% | 1017.7 hPa | - | - | - | - |
| 1777491045 | 18.89° C | 100% | 1017.7 hPa | - | - | - | - |
| 1777490145 | 18.33° C | 100% | 1017.3 hPa | - | - | - | - |
| 1777489245 | 19.44° C | 100% | 1017 hPa | - | - | - | - |
| 1777487444 | 21.11° C | 100% | 1016.7 hPa | - | - | - | - |
| 1777486544 | 22.78° C | 100% | 1016.7 hPa | - | - | - | - |
| 1777485644 | 23.89° C | 100% | 1016.4 hPa | - | - | - | - |
| 1777484744 | 24.44° C | 100% | 1016.2 hPa | - | - | - | - |
| 1777483843 | 25.56° C | 94% | 1016 hPa | - | - | - | - |
| 1777482943 | 25.56° C | 81% | 1016 hPa | - | - | - | - |
| 1777482043 | 26.11° C | 79% | 1015.9 hPa | - | - | - | - |
| 1777481143 | 26.11° C | 100% | 1015.8 hPa | - | - | - | - |
| 1777480243 | 26.11° C | 94% | 1015.7 hPa | - | - | - | - |
| 1777479343 | 26.67° C | 100% | 1015.7 hPa | - | - | - | - |
| 1777478443 | 26.67° C | 87% | 1015.7 hPa | - | - | - | - |
* Rain since midnight (hover to see other rain measurements)
** Current wind speed in m/s (hover to see current wind gust speed)